Location: Berville
(49.1893°N, 2.0748°E)
Time: 06:45:55
(UTC+00:00)

Iridium 2 - Pass Details

Date: 08 February 2023
Orbit: 470 x 479 km, 85.5° (Epoch: 21 March)

Event Time Altitude Azimuth Distance (km) Brightness Sun altitude
Rises 19:10:13 0° 350° (N) 2,546 7.4 -21.7°
Maximum altitude 19:15:51 48° 270° (W) 638 4.5 -22.6°
Drops below altitude 10° 19:19:21 10° 195° (SSW) 1,664 6.4 -23.2°
Sets 19:21:29 0° 190° (S) 2,543 7.3 -23.5°
